Overview Statistics Trail Chart Weather Telemetry Raw packets
 

This is the latest recevied weather packets stored in our database for station/object KD7DVD-1. If no packets are shown the sender has not sent any weather packets the latest 10 day(s).

<< 2 3 4 5 6 7 8 >>
Time Temp. Humidity Pressure Rain* Wind** Luminosity Snow
1788526815 11.67° C 95% 1011.5 hPa 0 mm - - -
1788525021 11.67° C 95% 1011.6 hPa 0 mm - - -
1788523217 11.67° C 95% 1011.1 hPa 0 mm - - -
1788521422 11.67° C 94% 1010.8 hPa 0 mm - - -
1788519618 11.67° C 94% 1010.7 hPa 0 mm - - -
1788517835 12.22° C 94% 1010.7 hPa 0 mm - - -
1788516018 12.22° C 94% 1010.6 hPa 0 mm - - -
1788514217 12.22° C 94% 1010.7 hPa 0 mm - - -
1788512417 12.22° C 94% 1010.6 hPa 0 mm - - -
1788510622 12.22° C 94% 1010.2 hPa 0 mm - - -
1788508817 12.22° C 93% 1010.6 hPa 0 mm - - -
1788507022 12.78° C 93% 1010.7 hPa 0.25 mm - - -
1788505217 13.33° C 93% 1010.7 hPa 0.51 mm - - -
1788503437 13.33° C 93% 1010.7 hPa 0.25 mm - - -
1788501616 12.78° C 93% 1010.5 hPa 0 mm - - -
1788499821 13.33° C 93% 1010.3 hPa 0 mm - - -
1788498021 13.33° C 93% 1010.5 hPa 0 mm - - -
1788496216 13.33° C 93% 1010.5 hPa 0 mm - - -
1788494420 13.33° C 92% 1010.4 hPa 0 mm - - -
1788492615 13.33° C 92% 1010.1 hPa 0 mm - - -
1788490817 13.33° C 91% 1009.9 hPa 0.25 mm - - -
1788489017 13.89° C 89% 1009.8 hPa 1.78 mm - - -
1788487222 15° C 85% 1009.7 hPa 1.52 mm - - -
1788485422 18.89° C 68% 1009.5 hPa 0 mm - - -
1788483618 17.78° C 70% 1009.5 hPa 0 mm - - -

* Rain latest hour (hover to see other rain measurements)
** Current wind speed in m/s (hover to see current wind gust speed)